Location: Cardiff
(53.7833°N, 113.6000°W)
Time: 00:58:35
(UTC+00:00)

RS-15 - Pass Details

Date: 07 December 2023
Orbit: 1893 x 2151 km, 64.8° (Epoch: 24 February)

Event Time Altitude Azimuth Distance (km) Brightness Sun altitude
Rises 03:04:35 0° 189° (S) 5,653 10.5 -32.5°
Reaches altitude 10° 03:08:11 10° 184° (S) 4,640 9.9 -33.1°
Enters shadow 03:16:02 40° 155° (SSE) 2,837 8.5 -34.2°
